Regional Weather Roundup
Issued by NWS

Home | Current Version | Previous Version | Graphics & Text | Print | Product List | Glossary On
Versions: 1 2 3 4 5 6 7 8 9 10 11 12 13 14 15 16 17 18 19 20 21 22 23 24 25 26 27 28 29 30 31 32 33 34 35 36 37 38 39 40 41 42 43 44 45 46 47 48 49 50
000
ASUS43 KFSD 241510
RWRSD

WEATHER ROUNDUP FOR SOUTH DAKOTA
NATIONAL WEATHER SERVICE SIOUX FALLS SD
1000 AM CDT TUE APR 24 2018

NOTE: "FAIR" INDICATES FEW OR NO CLOUDS BELOW 12,000 FEET WITH NO
SIGNIFICANT WEATHER AND/OR OBSTRUCTIONS TO VISIBILITY.


SDZ001>005-009-010-012>017-241600-
NORTHWEST AND NORTH CENTRAL SOUTH DAKOTA

CITY           SKY/WX    TMP DP  RH WIND       PRES   REMARKS
BUFFALO          N/A     40 N/A N/A NW17      30.41S
FAITH            N/A     37  36  96 NW15      30.43S
MOBRIDGE       MIX PCPN  38  35  89 N10       30.39R
$$

SDZ012>016-024>037-041>051-057-063-072>074-241600-
SOUTHWEST AND SOUTH CENTRAL SOUTH DAKOTA

CITY           SKY/WX    TMP DP  RH WIND       PRES   REMARKS
RAPID CTY ARPT FLURRIES  37  32  82 N20G25    30.46R
PIERRE         LGT RAIN  38  37  97 N21G29    30.35R FOG
CUSTER         CLOUDY    30  19  63 N17G30    30.38R WCI  18
ELLSWORTH AFB  LGT RAIN  37  35  92 N22       30.45
PHILIP         CLOUDY    37  36  96 N22G30    30.43R
PINE RIDGE     MIX PCPN  35  33  92 N17G25    30.43R FOG     WCI  25
SPEARFISH      CLOUDY    34  32  93 W9        30.49S WCI  26
WINNER         LGT RAIN  45  40  82 N32G39    30.24R
$$

SDZ004>011-016>023-039-040-241600-
NORTHEAST SOUTH DAKOTA

CITY           SKY/WX    TMP DP  RH WIND       PRES   REMARKS
ABERDEEN       RAIN      41  39  93 NE20G28   30.34R FOG
WATERTOWN      LGT RAIN  41  39  93 N23       30.27R
BROOKINGS      LGT RAIN  43  38  82 NE16G24   30.23S
SISSETON         N/A     43  40  89 N17       30.31S
$$

SDZ017-020-022-023-036>040-048>070-241600-
SOUTHEAST SOUTH DAKOTA

CITY           SKY/WX    TMP DP  RH WIND       PRES   REMARKS
SIOUX FALLS    CLOUDY    50  40  68 N13       30.21R
HURON          CLOUDY    44  40  85 NE21G31   30.25R
CHAMBERLAIN    CLOUDY    46  44  95 NE17      30.25R
MITCHELL       LGT RAIN  48  42  80 NE17G24   30.21R
YANKTON        CLOUDY    50  46  86 NW13      30.18R
$$

ABBREVIATIONS USED IN REMARKS
   TC - TEMPERATURE IN CELSIUS
  WCI - WIND CHILL INDEX
   HX - HEAT INDEX
  VSB - VISIBILITY




USA.gov is the U.S. government's official web portal to all federal, state and local government web resources and services.